User: anonymous   Login
Location: Fort Wayne
(41.1310°N, 85.1290°W)
Time: 13:34:36
(UTC-04:00)
Language:

ISS - Orbit

View from above orbital plane
View from above orbital plane
View from above satellite
View from above satellite

Ground track
Ground track

The orbit data is extracted from the following two-line orbital elements,

1 25544U 98067A   17230.53619678  .00016717  00000-0  10270-3 0  9027
2 25544  51.6418  87.5119 0004855 154.3258 205.8136 15.54179596 31447
Epoch (UTC): 18 August 2017 12:52:07
Eccentricity: 0.0004855
inclination: 51.6418°
perigee height: 401 km
apogee height: 408 km
right ascension of ascending node: 87.5119°
argument of perigee: 154.3258°
revolutions per day: 15.54179596
mean anomaly at epoch: 205.8136°
orbit number at epoch: 3144

The dashed part of the orbit path shows where the satellite is in the earth's shadow,  

DLR